Murrieta, CA

6:50 PM PDT on September 24, 2016 (GMT -0700)
Murrieta/temecula French Vall

Weather History for KF70 - January, 2014

Change the Weather History Date:

Wednesday, January 22, 2014

  Actual Average (KNFG) Record (KNFG)
Temperature  
Mean Temperature 61 °F -  
Max Temperature 78 °F 64 °F 75 °F (2015)
Min Temperature 44 °F 39 °F 37 °F (2015)
Degree Days  
Heating Degree Days 4    
Growing Degree Days 11 (Base 50)    
Moisture  
Dew Point 25 °F    
Average Humidity 31    
Maximum Humidity 57    
Minimum Humidity 8    
Precipitation  
Precipitation 0.00 in - - ()
Sea Level Pressure  
Sea Level Pressure 29.98 in    
Wind  
Wind Speed 2 mph (SSW)    
Max Wind Speed 10 mph    
Max Gust Speed -    
Visibility 10 miles    
Events      
Averages and records for this station are not official NWS values.
T = Trace of Precipitation, MM = Missing Value Source: NWS Daily Summary

Daily Weather History Graph

Daily Weather History Graph

Search for Another Location

Airport or City:

Trip Planner

Search our weather history database for the weather conditions in past years. The results will help you decide how hot, cold, wet, or windy it might be!

Date:

Astronomy

Jan. 22, 2014 Rise Set
Actual Time 6:50 AM PST 5:10 PM PST
Civil Twilight 6:23 AM PST 5:36 PM PST
Nautical Twilight 5:53 AM PST 6:07 PM PST
Astronomical Twilight 5:23 AM PST 6:36 PM PST
Moon 11:25 PM PST (1/22) 10:13 AM PST (1/22)
Length of Visible Light 11h 13m
Length of Day
10h 19m
Waning Gibbous, 64% of the Moon is Illuminated
Jan 22
Waning Gibbous
Jan 23
Last Quarter
Jan 30
New
Feb 6
First Quarter
Feb 14
Full

Hourly Weather History & Observations

Time (PST) Temp. Windchill Dew Point Humidity Pressure Visibility Wind Dir Wind Speed Gust Speed Precip Events Conditions
12:15 AM 53.6 °F - 23.0 °F 30% 30.08 in 10.0 mi NE 4.6 mph - N/A   Clear
12:35 AM 55.4 °F - 23.0 °F 29% 30.08 in 10.0 mi Calm Calm - N/A   Clear
12:55 AM 53.6 °F - 23.0 °F 30% 30.08 in 10.0 mi Calm Calm - N/A   Clear
1:15 AM 53.6 °F - 23.0 °F 30% 30.08 in 10.0 mi Calm Calm - N/A   Clear
1:35 AM 53.6 °F - 24.8 °F 33% 30.08 in 10.0 mi Calm Calm - N/A   Clear
1:55 AM 53.6 °F - 23.0 °F 30% 30.07 in 10.0 mi Calm Calm - N/A   Clear
2:15 AM 51.8 °F - 23.0 °F 33% 30.07 in 10.0 mi Calm Calm - N/A   Clear
2:35 AM 53.6 °F - 21.2 °F 28% 30.06 in 10.0 mi Calm Calm - N/A   Clear
2:55 AM 50.0 °F - 23.0 °F 35% 30.06 in 10.0 mi Calm Calm - N/A   Clear
3:15 AM 50.0 °F - 24.8 °F 37% 30.05 in 10.0 mi Calm Calm - N/A   Clear
3:35 AM 50.0 °F - 24.8 °F 37% 30.04 in 10.0 mi Calm Calm - N/A   Clear
3:55 AM 48.2 °F - 24.8 °F 40% 30.04 in 10.0 mi Calm Calm - N/A   Clear
4:15 AM 48.2 °F - 24.8 °F 40% 30.04 in 10.0 mi North 3.5 mph - N/A   Clear
4:35 AM 46.4 °F - 24.8 °F 43% 30.03 in 10.0 mi Calm Calm - N/A   Clear
4:55 AM 48.2 °F - 23.0 °F 37% 30.03 in 10.0 mi Calm Calm - N/A   Clear
5:15 AM 48.2 °F - 23.0 °F 37% 30.03 in 10.0 mi Calm Calm - N/A   Clear
5:35 AM 46.4 °F - 23.0 °F 40% 30.03 in 10.0 mi Calm Calm - N/A   Clear
5:55 AM 44.6 °F - 23.0 °F 43% 30.03 in 10.0 mi Calm Calm - N/A   Clear
6:15 AM 44.6 °F - 23.0 °F 43% 30.03 in 10.0 mi Calm Calm - N/A   Clear
6:35 AM 44.6 °F - 23.0 °F 43% 30.03 in 10.0 mi Calm Calm - N/A   Clear
6:55 AM 44.6 °F - 23.0 °F 43% 30.03 in 10.0 mi Calm Calm - N/A   Clear
7:15 AM 46.4 °F - 23.0 °F 40% 30.03 in 10.0 mi Calm Calm - N/A   Clear
7:35 AM 46.4 °F - 23.0 °F 40% 30.03 in 10.0 mi Calm Calm - N/A   Clear
7:55 AM 46.4 °F 43.5 °F 23.0 °F 40% 30.04 in 10.0 mi North 5.8 mph - N/A   Clear
8:15 AM 50.0 °F - 23.0 °F 35% 30.03 in 10.0 mi Calm Calm - N/A   Clear
8:35 AM 53.6 °F - 23.0 °F 30% 30.04 in 10.0 mi Calm Calm - N/A   Clear
8:55 AM 57.2 °F - 23.0 °F 27% 30.04 in 10.0 mi Calm Calm - N/A   Clear
9:15 AM 60.8 °F - 19.4 °F 20% 30.05 in 10.0 mi Calm Calm - N/A   Clear
9:35 AM 62.6 °F - 19.4 °F 19% 30.04 in 10.0 mi Calm Calm - N/A   Clear
9:55 AM 62.6 °F - 19.4 °F 19% 30.04 in 10.0 mi Calm Calm - N/A   Clear
10:15 AM 66.2 °F - 17.6 °F 15% 30.03 in 10.0 mi Calm Calm - N/A   Clear
10:35 AM 68.0 °F - 17.6 °F 15% 30.03 in 10.0 mi Calm Calm - N/A   Clear
10:55 AM 69.8 °F - 17.6 °F 14% 30.02 in 10.0 mi Calm Calm - N/A   Clear
11:15 AM 71.6 °F - 19.4 °F 14% 30.01 in 10.0 mi SSE 4.6 mph - N/A   Clear
11:35 AM 71.6 °F - 23.0 °F 16% 29.99 in 10.0 mi Calm Calm - N/A   Clear
11:55 AM 71.6 °F - 21.2 °F 15% 29.97 in 10.0 mi Calm Calm - N/A   Clear
12:15 PM 73.4 °F - 19.4 °F 13% 29.95 in 10.0 mi SSE 3.5 mph - N/A   Clear
12:35 PM 75.2 °F - 21.2 °F 13% 29.94 in 10.0 mi SW 3.5 mph - N/A   Clear
12:55 PM 75.2 °F - 19.4 °F 12% 29.93 in 10.0 mi Calm Calm - N/A   Clear
1:15 PM 77.0 °F - 14.0 °F 9% 29.92 in 10.0 mi WNW 3.5 mph - N/A   Clear
1:35 PM 77.0 °F - 12.2 °F 9% 29.91 in 10.0 mi NNW 3.5 mph - N/A   Clear
1:55 PM 77.0 °F - 12.2 °F 9% 29.91 in 10.0 mi Calm Calm - N/A   Clear
2:15 PM 78.8 °F - 12.2 °F 8% 29.91 in 10.0 mi Calm Calm - N/A   Clear
2:35 PM 78.8 °F - 15.8 °F 9% 29.90 in 10.0 mi South 6.9 mph - N/A   Clear
2:55 PM 78.8 °F - 21.2 °F 12% 29.90 in 10.0 mi South 9.2 mph - N/A   Clear
3:15 PM 75.2 °F - 32.0 °F 21% 29.90 in 10.0 mi SSW 9.2 mph - N/A   Clear
3:35 PM 73.4 °F - 32.0 °F 22% 29.90 in 10.0 mi SSW 8.1 mph - N/A   Clear
3:55 PM 73.4 °F - 30.2 °F 20% 29.91 in 10.0 mi SW 10.4 mph - N/A   Clear
4:15 PM 71.6 °F - 32.0 °F 23% 29.90 in 10.0 mi SSW 6.9 mph - N/A   Clear
4:35 PM 69.8 °F - 33.8 °F 27% 29.91 in 10.0 mi SSW 10.4 mph - N/A   Clear
4:55 PM 68.0 °F - 35.6 °F 30% 29.91 in 10.0 mi SSW 5.8 mph - N/A   Clear
5:15 PM 66.2 °F - 32.0 °F 28% 29.91 in 10.0 mi SSW 9.2 mph - N/A   Clear
5:35 PM 64.4 °F - 32.0 °F 30% 29.92 in 10.0 mi SSE 6.9 mph - N/A   Clear
5:55 PM 60.8 °F - 32.0 °F 34% 29.92 in 10.0 mi SE 6.9 mph - N/A   Clear
6:15 PM 59.0 °F - 33.8 °F 39% 29.92 in 10.0 mi South 3.5 mph - N/A   Clear
6:35 PM 59.0 °F - 32.0 °F 36% 29.92 in 10.0 mi Calm Calm - N/A   Clear
6:55 PM 60.8 °F - 32.0 °F 34% 29.92 in 10.0 mi Calm Calm - N/A   Clear
7:15 PM 57.2 °F - 32.0 °F 38% 29.93 in 10.0 mi Calm Calm - N/A   Clear
7:35 PM 55.4 °F - 32.0 °F 41% 29.94 in 10.0 mi Calm Calm - N/A   Clear
7:55 PM 55.4 °F - 32.0 °F 41% 29.94 in 10.0 mi Calm Calm - N/A   Clear
8:15 PM 51.8 °F - 28.4 °F 41% 29.94 in 10.0 mi ESE 3.5 mph - N/A   Clear
8:35 PM 53.6 °F - 30.2 °F 41% 29.95 in 10.0 mi Calm Calm - N/A   Clear
8:55 PM 50.0 °F - 28.4 °F 43% 29.95 in 10.0 mi Calm Calm - N/A   Clear
9:15 PM 50.0 °F - 30.2 °F 47% 29.95 in 10.0 mi Calm Calm - N/A   Clear
9:35 PM 50.0 °F - 30.2 °F 47% 29.95 in 10.0 mi Calm Calm - N/A   Clear
9:55 PM 50.0 °F - 30.2 °F 47% 29.95 in 10.0 mi Calm Calm - N/A   Clear
10:15 PM 48.2 °F - 32.0 °F 54% 29.95 in 10.0 mi Calm Calm - N/A   Clear
10:35 PM 50.0 °F - 30.2 °F 47% 29.94 in 10.0 mi Calm Calm - N/A   Clear
10:55 PM 46.4 °F - 30.2 °F 53% 29.95 in 10.0 mi Calm Calm - N/A   Clear
11:15 PM 46.4 °F - 30.2 °F 53% 29.96 in 10.0 mi Calm Calm - N/A   Clear
11:35 PM 46.4 °F - 32.0 °F 57% 29.96 in 10.0 mi Calm Calm - N/A   Clear
11:55 PM 44.6 °F - 30.2 °F 57% 29.95 in 10.0 mi Calm Calm - N/A   Clear